Regional Weather Roundup
Issued by NWS

Home | Current Version | Previous Version | Graphics & Text | Print | Product List | Glossary On
Versions: 1 2 3 4 5 6 7 8 9 10 11 12 13 14 15 16 17 18 19 20 21 22 23 24 25 26 27 28 29 30 31 32 33 34 35 36 37 38 39 40 41 42 43 44 45 46 47 48 49 50
000
ASUS43 KIND 281909
RWRIN

WEATHER ROUNDUP FOR INDIANA
NATIONAL WEATHER SERVICE INDIANAPOLIS IN
300 PM EDT FRI APR 28 2017

NOTE: "FAIR" INDICATES FEW OR NO CLOUDS BELOW 12,000 FEET WITH NO
SIGNIFICANT WEATHER AND/OR OBSTRUCTIONS TO VISIBILITY.

* - STATION DOES NOT REPORT WEATHER SUCH AS PRECIPITATION OR FOG.

+ - STATION NOT QUALITY CONTROLLED BY THE NATIONAL WEATHER SERVICE.
    USE DATA WITH CAUTION...ESPECIALLY DEWPOINT AND RELATIVE
    HUMIDITY OBSERVATIONS.

INZ001>003-010>013-019-020-282000-
NORTHWEST INDIANA

CITY           SKY/WX    TMP DP  RH WIND       PRES   REMARKS
GARY /AIRPORT/ CLOUDY    59  43  55 SE8       29.92F
KNOX *+        PTSUNNY   57  23  26 SE12      29.92S
LA PORTE +     CLOUDY    57  46  64 SE9       29.94S
MICHIGAN CITY+ CLOUDY    55  45  67 SE3       29.94F
MONTICELLO +   LGT RAIN  56  47  71 S9        29.95R
RENSSELAER +   CLOUDY    59  46  63 SE17      29.93R
VALPARAISO     CLOUDY    60  47  61 E8        29.90F

$$

LMZ046-743>745-282000-
SOUTHERN LAKE MICHIGAN

STATION/POSITION TIME  TEMP    WIND        PRES    WAVE
                       AIR SEA DIR/SP/G            HT
                 (UTC) (F)     (DEG/KT/KT) (MB)    (FT)
BURNS HARBOR     1840   57     110/ 10/ 13 1013.2F
MICHIGAN CITY    1840   57     100/  6/  8   N/A
5NW MICH CITY    1900   51 46                N/A     1

$$

INZ004-005-014>016-021>024-282000-
NORTH CENTRAL INDIANA

CITY           SKY/WX    TMP DP  RH WIND       PRES   REMARKS
ELKHART        CLOUDY    59  41  51 S12       29.95F
GOSHEN         CLOUDY    59  40  49 S8        29.96F
LOGANSPORT +   CLOUDY    55  46  71 SE13      29.98R
PERU/GRISSOM   CLOUDY    55  51  85 S14       29.96R
ROCHESTER +    CLOUDY    61  46  59 SE15      29.97R
SOUTH BEND     CLOUDY    57  43  59 S9        29.95F
WARSAW +       CLOUDY    57  43  58 SE6       29.96S

$$

INZ006>009-017-018-025>027-282000-
NORTHEAST INDIANA

CITY           SKY/WX    TMP DP  RH WIND       PRES   REMARKS
ANGOLA *+      SUNNY     57  48  72 S9        29.98S
AUBURN +       CLOUDY    61  41  48 SW3       29.98F
FORT WAYNE     CLOUDY    57  47  69 S7        29.98F
HUNTINGTON +   CLOUDY    56  49  77 S10       30.00R
KENDALLVILLE + CLOUDY    58  43  58 S8        29.99S

$$

INZ028-029-035-036-043>045-051>053-282000-
WEST CENTRAL INDIANA

CITY           SKY/WX    TMP DP  RH WIND       PRES   REMARKS
CRAWFORDSVL +  CLOUDY    52  52 100 SE10      29.92F
GREENCASTLE +  CLOUDY    55  50  82 E8        29.92F
LAFAYETTE      RAIN      54  50  86 SE6       29.94S FOG
TERRE HAUTE    CLOUDY    59  51  75 E7        29.90F

$$

INZ030>032-037>040-046>048-054>057-064-065-282000-
CENTRAL INDIANA

CITY           SKY/WX    TMP DP  RH WIND       PRES   REMARKS
CP ATTERBURY + PTSUNNY   61  52  72 E8        29.94F
COLUMBUS       CLOUDY    63  48  59 E10       29.94F
FISHERS *+     CLOUDY    55  52  88 E3        29.94F
FRANKFORT +    RAIN      57  53  86 S9        29.96F
GREENWOOD *+   CLOUDY    60  48  64 E7        29.95F
INDIANAPOLIS   CLOUDY    59  49  69 E9        29.93F
-EAGLE CREEK   CLOUDY    58  48  69 E7        29.93F
KOKOMO +       LGT RAIN  54  49  83 SE10G18   29.98R
MARION +       CLOUDY    54  48  82 SE8       29.99R
MT COMFORT *+  CLOUDY    59  50  72 E9        29.94F
SHELBYVILLE    CLOUDY    64  48  56 E12       29.94F
ZIONSVILLE +   LGT RAIN  53  50  90 E9        29.94F

$$

INZ033-034-041-042-049-050-058-059-282000-
EAST CENTRAL INDIANA

CITY           SKY/WX    TMP DP  RH WIND       PRES   REMARKS
MUNCIE         CLOUDY    57  49  74 VRB6      30.00R
RICHMOND +     CLOUDY    57  48  72 SE6       30.00S

$$

INZ060-061-067>069-081>083-085>088-282000-
SOUTHWEST INDIANA

CITY           SKY/WX    TMP DP  RH WIND       PRES   REMARKS
EVANSVILLE     MOSUNNY   72  58  61 E9        29.85F
WASHINGTON +   CLOUDY    64  52  65 E8        29.88F

$$

INZ062-063-066-070>080-084-089>092-282000-
SOUTH CENTRAL AND SOUTHEAST INDIANA

CITY           SKY/WX    TMP DP  RH WIND       PRES   REMARKS
BEDFORD +      CLOUDY    63  52  67 NE5       29.90S
BLOOMINGTON    MOSUNNY   61  51  70 SE9       29.92F
MADISON *+     PTSUNNY   70  54  56 E10       29.94F
SEYMOUR +      MOSUNNY   70  52  52 E9        29.92F

$$





USA.gov is the U.S. government's official web portal to all federal, state and local government web resources and services.